Location: Oakhurst
(33.6448°N, 111.9543°W)
Time: 03:46:54
(UTC+00:00)

Max Valier Satellite - Pass Details

Date: 04 August 2021
Orbit: 486 x 502 km, 97.2° (Epoch: 24 September)

Event Time Altitude Azimuth Distance (km) Brightness Sun altitude
Exits shadow 04:22:52 18° 219° (SW) 1,245 ? -21.8°
Maximum altitude 04:24:38 27° 263° (W) 971 ? -22.0°
Drops below altitude 10° 04:27:44 10° 323° (NW) 1,679 ? -22.5°
Sets 04:30:03 0° 335° (NNW) 2,567 ? -22.9°
